Regional Weather Roundup
Issued by NWS

Home | Current Version | Previous Version | Text Only | Print | Product List | Glossary Off
Versions: 1 2 3 4 5 6 7 8 9 10 11 12 13 14 15 16 17 18 19 20 21 22 23 24 25 26 27 28 29 30 31 32 33 34 35 36 37 38 39 40 41 42 43 44 45 46 47 48 49 50

141
ASUS43 KBIS 061410
RWRND

NORTH DAKOTA REGIONAL WEATHER ROUNDUP
NATIONAL WEATHER SERVICE BISMARCK ND
800 AM CST TUE DEC 06 2016

NOTE: "FAIR" INDICATES FEW OR NO CLOUDS BELOW 12,000 FEET WITH NO
SIGNIFICANT WEATHER AND/OR OBSTRUCTIONS TO VISIBILITY.


NDZ001>003-009>011-017-061500-
NORTHWEST NORTH DAKOTA

CITY           SKY/WX    TMP DP  RH WIND       PRES   REMARKS
WILLISTON      CLOUDY     5  -2  72 W15G25    30.01R WCI -13
MINOT          SNOW      10   7  87 W39G49    29.77R VSB 1/4 WCI -15
MINOT AFB      BLWGSNOW   9   7  92 NW40G47   29.75S VSB 1/4 WCI -17
$$

NDZ018>021-031>035-040>046-061500-
SOUTHWEST NORTH DAKOTA

CITY           SKY/WX    TMP DP  RH WIND       PRES   REMARKS
BISMARCK       LGT SNOW  10   7  87 NW26G40   29.82R FOG     WCI -11
DICKINSON      MIX PCPN   2  -3  80 NW32G39   29.87S WCI -24
GARRISON         N/A      8   4  83 MISG      29.78R
HETTINGER ARPT CLOUDY     5   0  79 W28G37    29.90S WCI -18
$$

NDZ004>008-012>016-024-026-027-054-061500-
NORTHEAST NORTH DAKOTA

CITY           SKY/WX    TMP DP  RH WIND       PRES   REMARKS
GRAND FORKS    LGT SNOW  29  26  89 NW26G33   29.29F VSB 3/4 WCI  14
GRND FRKS AFB  SNOW      28  27  93 N24G33    29.31S VSB 1/2 WCI  14
DEVILS LAKE    SNOW      21  19  93 NW35G45   29.48R VSB 1/2 WCI   2
$$

NDZ022-023-025-028>030-036>039-047>053-061500-
SOUTHEAST NORTH DAKOTA

CITY           SKY/WX    TMP DP  RH WIND       PRES   REMARKS
FARGO          LGT SNOW  29  26  89 W28G33    29.38S VSB 1   WCI  14
JAMESTOWN      SNOW      15  12  88 NW36G49   29.54R VSB 1/4 WCI  -7
$$





USA.gov is the U.S. government's official web portal to all federal, state and local government web resources and services.